When you browse on this site, cookies collect data to enhance your experience and personalize the content and advertising you see.
Visit our Privacy Policy to learn more. By continuing to use the site, you agree to this use of cookies and data.
  • In Hungary
  • List of Countries
  • For 7 days
  • Water Temperature
  • Weather Map
  • News
  • Weather Widgets
  • user-avatar
    Login

    Hourly Weather Bor

    Today, 18 November, Monday

    Time Temperature Precipitation Wind Pressure Humidity
    00:00 +16°C° 2.3 mm 8 mps 758 mmHg 84%
    01:00 +15°C° 0 mm 9 mps 758 mmHg 85%
    02:00 +15°C° 2.4 mm 9 mps 758 mmHg 86%
    03:00 +15°C° 2.4 mm 8 mps 759 mmHg 87%
    04:00 +14°C° 2.4 mm 7 mps 759 mmHg 89%
    05:00 +14°C° 0.8 mm 6 mps 759 mmHg 89%
    06:00 +14°C° 0.8 mm 5 mps 760 mmHg 88%
    07:00 +14°C° 0 mm 4 mps 760 mmHg 89%
    08:00 +14°C° 0.8 mm 4 mps 761 mmHg 84%
    09:00 +16°C° 0.8 mm 3 mps 761 mmHg 80%
    10:00 +17°C° 0.8 mm 2 mps 761 mmHg 75%
    11:00 +18°C° 0.2 mm 2 mps 762 mmHg 73%
    12:00 +18°C° 0.2 mm 2 mps 762 mmHg 70%
    13:00 +18°C° 0.2 mm 2 mps 762 mmHg 68%
    14:00 +18°C° 0 mm 2 mps 762 mmHg 71%
    15:00 +17°C° 0 mm 2 mps 763 mmHg 75%
    16:00 +16°C° 0 mm 3 mps 763 mmHg 78%
    17:00 +16°C° 0 mm 3 mps 763 mmHg 80%
    18:00 +14°C° 0 mm 3 mps 763 mmHg 81%
    19:00 +14°C° 0 mm 3 mps 764 mmHg 83%
    20:00 +14°C° 0 mm 3 mps 764 mmHg 82%
    21:00 +13°C° 0 mm 3 mps 764 mmHg 80%
    22:00 +13°C° 0 mm 3 mps 765 mmHg 79%
    23:00 +13°C° 0 mm 3 mps 765 mmHg 78%

    Tomorrow, 19 November, Tuesday

    Time Temperature Precipitation Wind Pressure Humidity
    00:00 +13°C° 0 mm 3 mps 765 mmHg 76%
    01:00 +13°C° 0 mm 3 mps 765 mmHg 75%
    02:00 +13°C° 0 mm 3 mps 765 mmHg 74%
    03:00 +13°C° 0 mm 3 mps 764 mmHg 73%
    04:00 +13°C° 0 mm 3 mps 764 mmHg 72%
    05:00 +13°C° 0 mm 3 mps 764 mmHg 71%
    06:00 +13°C° 0 mm 3 mps 764 mmHg 70%
    07:00 +13°C° 0 mm 3 mps 764 mmHg 69%
    08:00 +14°C° 0 mm 3 mps 764 mmHg 67%
    09:00 +16°C° 0 mm 3 mps 764 mmHg 65%
    10:00 +17°C° 0 mm 3 mps 764 mmHg 62%
    11:00 +18°C° 0 mm 3 mps 764 mmHg 61%
    12:00 +18°C° 0 mm 2 mps 763 mmHg 60%
    13:00 +19°C° 0 mm 2 mps 763 mmHg 58%
    14:00 +18°C° 0 mm 2 mps 763 mmHg 60%
    15:00 +18°C° 0 mm 2 mps 762 mmHg 62%
    16:00 +17°C° 0 mm 2 mps 762 mmHg 64%
    17:00 +17°C° 0.2 mm 2 mps 762 mmHg 66%
    18:00 +16°C° 0.2 mm 3 mps 762 mmHg 69%
    19:00 +16°C° 0.2 mm 3 mps 762 mmHg 71%
    20:00 +15°C° 1.8 mm 4 mps 762 mmHg 75%
    21:00 +14°C° 1.8 mm 4 mps 762 mmHg 79%
    22:00 +14°C° 1.8 mm 4 mps 762 mmHg 83%
    23:00 +14°C° 1 mm 4 mps 761 mmHg 85%

    Day after tomorrow, 20 November, Wednesday

    Time Temperature Precipitation Wind Pressure Humidity
    00:00 +14°C° 1 mm 4 mps 760 mmHg 86%
    01:00 +14°C° 1 mm 4 mps 760 mmHg 88%
    02:00 +14°C° 3.5 mm 5 mps 760 mmHg 90%
    03:00 +14°C° 3.5 mm 6 mps 759 mmHg 93%
    04:00 +13°C° 3.5 mm 6 mps 759 mmHg 96%
    05:00 +14°C° 1.5 mm 6 mps 759 mmHg 94%
    06:00 +14°C° 1.5 mm 6 mps 759 mmHg 92%
    07:00 +14°C° 1.5 mm 6 mps 759 mmHg 90%
    08:00 +14°C° 1.2 mm 6 mps 760 mmHg 87%
    09:00 +15°C° 1.2 mm 6 mps 760 mmHg 84%
    10:00 +15°C° 1.2 mm 5 mps 761 mmHg 81%
    11:00 +16°C° 0.7 mm 5 mps 761 mmHg 78%
    12:00 +17°C° 0.7 mm 4 mps 760 mmHg 75%
    13:00 +17°C° 0.7 mm 4 mps 760 mmHg 72%
    14:00 +17°C° 0.3 mm 3 mps 761 mmHg 74%
    15:00 +16°C° 0.3 mm 3 mps 761 mmHg 76%
    16:00 +14°C° 0.3 mm 3 mps 761 mmHg 78%
    17:00 +14°C° 0.2 mm 3 mps 761 mmHg 80%
    18:00 +13°C° 0.2 mm 3 mps 762 mmHg 81%
    19:00 +14°C° 0.2 mm 2 mps 762 mmHg 82%
    20:00 +13°C° 0.2 mm 3 mps 762 mmHg 82%
    21:00 +13°C° 0.2 mm 3 mps 763 mmHg 82%
    22:00 +12°C° 0.2 mm 3 mps 763 mmHg 82%
    23:00 +12°C° 0.2 mm 3 mps 763 mmHg 82%

    21 November, Thursday

    Time Temperature Precipitation Wind Pressure Humidity
    00:00 +12°C° 0.2 mm 3 mps 763 mmHg 81%
    01:00 +12°C° 0.2 mm 3 mps 763 mmHg 80%
    02:00 +12°C° 0.1 mm 3 mps 763 mmHg 80%
    03:00 +12°C° 0.1 mm 3 mps 763 mmHg 80%
    04:00 +12°C° 0.1 mm 3 mps 763 mmHg 79%
    05:00 +12°C° 0 mm 3 mps 763 mmHg 79%
    06:00 +12°C° 0 mm 3 mps 762 mmHg 79%
    07:00 +11°C° 0 mm 3 mps 762 mmHg 79%
    08:00 +13°C° 0 mm 3 mps 762 mmHg 76%
    09:00 +15°C° 0 mm 2 mps 762 mmHg 73%
    10:00 +16°C° 0 mm 2 mps 762 mmHg 70%
    11:00 +16°C° 0 mm 2 mps 762 mmHg 68%
    12:00 +18°C° 0 mm 1 mps 761 mmHg 66%
    13:00 +18°C° 0 mm 1 mps 761 mmHg 63%
    14:00 +18°C° 0 mm 1 mps 761 mmHg 66%
    15:00 +16°C° 0 mm 1 mps 761 mmHg 68%
    16:00 +15°C° 0 mm 1 mps 760 mmHg 71%
    17:00 +15°C° 0 mm 1 mps 761 mmHg 69%
    18:00 +14°C° 0 mm 2 mps 761 mmHg 68%
    19:00 +14°C° 0 mm 2 mps 761 mmHg 66%
    20:00 +14°C° 0 mm 2 mps 761 mmHg 66%
    21:00 +14°C° 0 mm 2 mps 761 mmHg 65%
    22:00 +14°C° 0 mm 2 mps 761 mmHg 65%
    23:00 +14°C° 0 mm 2 mps 761 mmHg 65%

    22 November, Friday

    Time Temperature Precipitation Wind Pressure Humidity
    00:00 +14°C° 0 mm 1 mps 761 mmHg 65%
    01:00 +14°C° 0 mm 1 mps 761 mmHg 65%
    02:00 +14°C° 0 mm 1 mps 761 mmHg 65%
    03:00 +14°C° 0 mm 1 mps 761 mmHg 65%
    04:00 +14°C° 0 mm 2 mps 761 mmHg 65%
    05:00 +13°C° 0 mm 1 mps 761 mmHg 65%
    06:00 +13°C° 0 mm 1 mps 761 mmHg 66%
    07:00 +13°C° 0 mm 1 mps 761 mmHg 66%
    08:00 +14°C° 0 mm 1 mps 761 mmHg 65%
    09:00 +15°C° 0 mm 1 mps 761 mmHg 64%
    10:00 +16°C° 0 mm 1 mps 761 mmHg 63%
    11:00 +16°C° 0 mm 1 mps 761 mmHg 62%
    12:00 +18°C° 0 mm 1 mps 761 mmHg 61%
    13:00 +16°C° 0 mm 0 mps 761 mmHg 60%
    14:00 +15°C° 0 mm 0 mps 761 mmHg 64%
    15:00 +15°C° 0 mm 0 mps 761 mmHg 67%
    16:00 +14°C° 0 mm 0 mps 761 mmHg 71%
    17:00 +14°C° 0 mm 0 mps 761 mmHg 72%
    18:00 +13°C° 0 mm 0 mps 761 mmHg 74%
    19:00 +13°C° 0 mm 0 mps 761 mmHg 75%
    20:00 +13°C° 0 mm 0 mps 762 mmHg 76%
    21:00 +12°C° 0 mm 0 mps 762 mmHg 77%
    22:00 +12°C° 0 mm 0 mps 762 mmHg 77%
    23:00 +13°C° 0 mm 1 mps 762 mmHg 78%

    23 November, Saturday

    Time Temperature Precipitation Wind Pressure Humidity
    00:00 +13°C° 0 mm 1 mps 762 mmHg 78%
    01:00 +13°C° 0 mm 1 mps 762 mmHg 78%
    02:00 +13°C° 0 mm 2 mps 762 mmHg 78%
    03:00 +12°C° 0 mm 2 mps 762 mmHg 79%
    04:00 +12°C° 0 mm 2 mps 762 mmHg 79%
    05:00 +12°C° 0 mm 2 mps 762 mmHg 79%
    06:00 +12°C° 0 mm 2 mps 762 mmHg 79%
    07:00 +12°C° 0 mm 2 mps 762 mmHg 80%
    08:00 +12°C° 0 mm 3 mps 762 mmHg 77%
    09:00 +13°C° 0 mm 3 mps 762 mmHg 74%
    10:00 +14°C° 0 mm 3 mps 762 mmHg 72%
    11:00 +16°C° 0.1 mm 3 mps 761 mmHg 71%
    12:00 +16°C° 0.1 mm 3 mps 761 mmHg 70%
    13:00 +15°C° 0.1 mm 4 mps 760 mmHg 69%
    14:00 +16°C° 0.1 mm 3 mps 760 mmHg 73%
    15:00 +14°C° 0.1 mm 3 mps 760 mmHg 76%
    16:00 +14°C° 0.1 mm 3 mps 760 mmHg 79%
    17:00 +13°C° 0.2 mm 4 mps 760 mmHg 80%
    18:00 +13°C° 0.2 mm 4 mps 760 mmHg 81%
    19:00 +12°C° 0.2 mm 4 mps 760 mmHg 82%
    20:00 +12°C° 0.2 mm 4 mps 760 mmHg 82%
    21:00 +12°C° 0.2 mm 4 mps 760 mmHg 82%
    22:00 +12°C° 0.2 mm 4 mps 759 mmHg 82%
    23:00 +12°C° 0.1 mm 4 mps 759 mmHg 81%
    Show more